Flag for Canada

Past Weather in Burlington, Ontario, Canada — Yesterday and Last 2 Weeks

Now
70 °F

Mild.


Feels Like: 75 °F
Forecast: 75 / 64 °F
Wind: 6 mph from Northwest

Location: Burlington Piers

Current Time: Jul 14, 2020 at 12:18:18 am

Latest Report: Jul 13, 2020 at 11:00 pm


Visibility: N/A

Pressure: 29.96 "Hg

Humidity: 67%

Dew Point: 59 °F

Location of BurlingtonLocation

Past Weather in Burlington — Graph

°F

Burlington Temperature Yesterday

Maximum temperature yesterday: 77 °F (at 4:00 pm)
Minimum temperature yesterday: 63 °F (at 4:00 am)
Average temperature yesterday: 70 °F

High & Low Weather Summary for the Past Weeks

 TemperatureHumidityPressure
High91 °F (Jul 2, 3:00 pm)99% (Jul 10, 8:00 pm)30.04 "Hg (Jul 10, 8:00 pm)
Low63 °F (Jul 13, 4:00 am)25% (Jul 5, 4:00 pm)29.60 "Hg (Jul 11, 1:00 pm)
Average76 °F69%29.89 "Hg
* Reported Jun 28 11:00 pm — Jul 13 11:00 pm, Burlington. Weather by CustomWeather, © 2020

Note: Actual official high and low records may vary slightly from our data, if they occured in-between our weather recording intervals... More about our weather records

Burlington Weather History for the Previous 24 Hours

Scroll right to see more
 ConditionsComfort  
Time TempWeatherWind HumidityBarometerVisibility
11:00 pm
Mon, Jul 13
70 °FMild.6 mph67%29.96 "HgN/A
10:00 pm72 °FMild.8 mph57%29.94 "HgN/A
9:00 pm72 °FMild.9 mph59%29.93 "HgN/A
8:00 pm76 °FMild.10 mph53%29.92 "HgN/A
7:00 pm76 °FMild.9 mph54%29.90 "HgN/A
6:00 pm74 °FMild.10 mph56%29.89 "HgN/A
5:00 pm74 °FMild.7 mph61%29.88 "HgN/A
4:00 pm77 °FWarm.10 mph51%29.88 "HgN/A
3:00 pm76 °FMild.10 mph48%29.88 "HgN/A
2:00 pm76 °FMild.7 mph53%29.87 "HgN/A
1:00 pm74 °FMild.3 mph57%29.87 "HgN/A
12:00 pm72 °FMild.6 mph66%29.88 "HgN/A
11:00 am73 °FMild.7 mph58%29.87 "HgN/A
10:00 am70 °FMild.10 mph67%29.87 "HgN/A
9:00 am68 °FMild.5 mph78%29.87 "HgN/A
8:00 am67 °FMild.6 mph83%29.86 "HgN/A
7:00 am66 °FMild.6 mph85%29.85 "HgN/A
6:00 am64 °FMild.7 mph95%29.82 "HgN/A
5:00 am64 °FMild.6 mph87%29.81 "HgN/A
4:00 am63 °FMild.6 mph89%29.80 "HgN/A
3:00 am64 °FMild.7 mph85%29.81 "HgN/A
2:00 am64 °FMild.7 mph84%29.82 "HgN/A
1:00 am67 °FMild.7 mph69%29.81 "HgN/A
12:00 am70 °FMild.3 mph67%29.80 "HgN/A
Weather by CustomWeather, © 2020

See weather overview